Location: Pl�tzky
(52.0521°N, 11.8020°E)
Time: 01:06:19
(UTC+00:00)

USA 229 - Pass Details

Date: 24 February 2020
Orbit: 986 x 1226 km, 63.4° (Epoch: 26 March)

Event Time Altitude Azimuth Distance (km) Brightness Sun altitude
Rises 23:17:08 0° 309° (NW) 3,885 7.0 -47.3°
Reaches altitude 10° 23:19:50 10° 314° (NW) 2,962 6.3 -47.3°
Enters shadow 23:20:56 15° 318° (NW) 2,601 6.0 -47.3°
